Location: Vancouver
(49.2500°N, 123.1330°W)
Time: 18:38:37
(UTC-07:00)

AO-27 - Visible Passes

Search period start: 30 July 2016 00:00
Search period end: 09 August 2016 00:00
Orbit: 786 x 798 km, 98.8° (Epoch: 29 July)

Date Brightness Start Highest point End Pass type
(mag) Time Alt. Az. Time Alt. Az. Time Alt. Az.
30 Jul 9.9 03:05:42 10° NE 03:09:19 19° E 03:12:54 10° SE visible
30 Jul 7.7 04:44:09 10° N 04:49:20 71° WNW 04:54:30 10° SSW visible
31 Jul 10.4 02:39:17 10° ENE 02:39:52 10° E 02:40:26 10° E visible
31 Jul 7.9 04:15:07 10° NNE 04:20:21 69° ESE 04:25:30 10° S visible
01 Aug 8.8 03:46:18 10° NNE 03:51:13 40° E 03:56:03 10° SSE visible
02 Aug 9.6 03:17:49 10° NE 03:21:57 23° E 03:26:03 10° SE visible
02 Aug 7.9 04:56:42 10° N 05:01:48 56° WNW 05:06:52 10° SW visible
03 Aug 10.1 02:50:04 10° ENE 02:52:33 13° E 02:55:02 10° ESE visible
03 Aug 7.7 04:27:36 10° NNE 04:32:51 86° ESE 04:38:02 10° SSW visible
04 Aug 8.4 03:58:41 10° NNE 04:03:46 50° E 04:08:47 10° S visible
05 Aug 9.3 03:30:02 10° NE 03:34:33 29° E 03:39:02 10° SSE visible
05 Aug 8.2 05:09:17 10° N 05:14:14 45° WNW 05:19:09 10° SW visible
06 Aug 10.0 03:01:52 10° NE 03:05:13 17° E 03:08:33 10° SE visible
06 Aug 7.7 04:40:06 10° NNE 04:45:19 77° WNW 04:50:30 10° SSW visible
07 Aug 8.0 04:11:07 10° NNE 04:16:18 63° ESE 04:21:26 10° S visible
08 Aug 8.9 03:42:20 10° NNE 03:47:08 36° E 03:51:54 10° SSE visible
